• In Hungary
  • List of Countries
  • For 7 days
  • Water Temperature
  • Satellite Maps
  • Weather Map
  • News
  • Weather Widgets
  • user-avatar
    Login

    Hourly Weather Podkowa Lesna

    Today, 21 August, Tuesday

    Time Temperature Precipitation Wind Pressure Humidity
    00:00 +20°C° 0 mm 3 mps 751 mmHg 78%
    01:00 +20°C° 0 mm 3 mps 752 mmHg 80%
    02:00 +19°C° 0 mm 3 mps 752 mmHg 81%
    03:00 +19°C° 0 mm 3 mps 752 mmHg 82%
    04:00 +18°C° 0 mm 3 mps 752 mmHg 83%
    05:00 +19°C° 0 mm 3 mps 753 mmHg 78%
    06:00 +20°C° 0 mm 4 mps 753 mmHg 74%
    07:00 +20°C° 0 mm 4 mps 754 mmHg 68%
    08:00 +21°C° 0 mm 4 mps 754 mmHg 63%
    09:00 +22°C° 0 mm 5 mps 754 mmHg 58%
    10:00 +23°C° 0 mm 5 mps 754 mmHg 54%
    11:00 +23°C° 0 mm 5 mps 754 mmHg 51%
    12:00 +25°C° 0 mm 5 mps 754 mmHg 49%
    13:00 +26°C° 0 mm 5 mps 754 mmHg 46%
    14:00 +25°C° 0 mm 4 mps 754 mmHg 46%
    15:00 +25°C° 0 mm 4 mps 754 mmHg 45%
    16:00 +25°C° 0 mm 4 mps 754 mmHg 45%
    17:00 +24°C° 0 mm 3 mps 754 mmHg 50%
    18:00 +21°C° 0 mm 3 mps 754 mmHg 54%
    19:00 +20°C° 0 mm 2 mps 754 mmHg 59%
    20:00 +19°C° 0 mm 2 mps 755 mmHg 61%
    21:00 +18°C° 0 mm 2 mps 755 mmHg 64%
    22:00 +17°C° 0 mm 3 mps 755 mmHg 66%
    23:00 +16°C° 0 mm 2 mps 756 mmHg 70%

    Tomorrow, 22 August, Wednesday

    Time Temperature Precipitation Wind Pressure Humidity
    00:00 +15°C° 0 mm 2 mps 756 mmHg 74%
    01:00 +15°C° 0 mm 2 mps 756 mmHg 78%
    02:00 +14°C° 0 mm 2 mps 756 mmHg 81%
    03:00 +14°C° 0 mm 2 mps 756 mmHg 84%
    04:00 +13°C° 0 mm 2 mps 757 mmHg 87%
    05:00 +15°C° 0 mm 2 mps 757 mmHg 82%
    06:00 +16°C° 0 mm 2 mps 757 mmHg 77%
    07:00 +17°C° 0 mm 2 mps 757 mmHg 71%
    08:00 +19°C° 0 mm 2 mps 757 mmHg 64%
    09:00 +20°C° 0 mm 2 mps 757 mmHg 57%
    10:00 +23°C° 0 mm 2 mps 757 mmHg 50%
    11:00 +24°C° 0 mm 2 mps 757 mmHg 46%
    12:00 +25°C° 0 mm 2 mps 756 mmHg 43%
    13:00 +26°C° 0 mm 1 mps 756 mmHg 39%
    14:00 +26°C° 0 mm 1 mps 756 mmHg 39%
    15:00 +26°C° 0 mm 1 mps 755 mmHg 38%
    16:00 +26°C° 0 mm 1 mps 755 mmHg 38%
    17:00 +24°C° 0 mm 1 mps 755 mmHg 43%
    18:00 +23°C° 0 mm 2 mps 755 mmHg 47%
    19:00 +20°C° 0 mm 2 mps 755 mmHg 52%
    20:00 +19°C° 0 mm 2 mps 755 mmHg 55%
    21:00 +19°C° 0 mm 2 mps 755 mmHg 57%
    22:00 +18°C° 0 mm 3 mps 755 mmHg 60%
    23:00 +18°C° 0 mm 3 mps 755 mmHg 64%

    Day after tomorrow, 23 August, Thursday

    Time Temperature Precipitation Wind Pressure Humidity
    00:00 +17°C° 0 mm 3 mps 755 mmHg 68%
    01:00 +17°C° 0 mm 3 mps 755 mmHg 72%
    02:00 +16°C° 0 mm 3 mps 754 mmHg 75%
    03:00 +16°C° 0 mm 3 mps 754 mmHg 77%
    04:00 +16°C° 0 mm 3 mps 754 mmHg 80%
    05:00 +17°C° 0 mm 3 mps 754 mmHg 76%
    06:00 +18°C° 0 mm 3 mps 754 mmHg 72%
    07:00 +19°C° 0 mm 3 mps 754 mmHg 68%
    08:00 +21°C° 0 mm 3 mps 754 mmHg 62%
    09:00 +23°C° 0 mm 4 mps 753 mmHg 56%
    10:00 +26°C° 0 mm 4 mps 753 mmHg 50%
    11:00 +27°C° 0 mm 3 mps 753 mmHg 47%
    12:00 +28°C° 0 mm 3 mps 752 mmHg 44%
    13:00 +29°C° 0 mm 3 mps 752 mmHg 41%
    14:00 +29°C° 0 mm 3 mps 752 mmHg 42%
    15:00 +29°C° 0 mm 3 mps 751 mmHg 42%
    16:00 +29°C° 0 mm 2 mps 751 mmHg 42%
    17:00 +27°C° 0 mm 3 mps 751 mmHg 48%
    18:00 +26°C° 0 mm 3 mps 750 mmHg 53%
    19:00 +24°C° 0 mm 3 mps 750 mmHg 59%
    20:00 +22°C° 0 mm 3 mps 750 mmHg 63%
    21:00 +22°C° 0 mm 4 mps 750 mmHg 66%
    22:00 +21°C° 0 mm 4 mps 750 mmHg 70%
    23:00 +21°C° 0 mm 4 mps 750 mmHg 72%

    24 August, Friday

    Time Temperature Precipitation Wind Pressure Humidity
    00:00 +21°C° 0 mm 4 mps 749 mmHg 74%
    01:00 +20°C° 0 mm 3 mps 749 mmHg 75%
    02:00 +20°C° 0.5 mm 3 mps 749 mmHg 78%
    03:00 +20°C° 0.5 mm 3 mps 749 mmHg 80%
    04:00 +19°C° 0.5 mm 3 mps 748 mmHg 82%
    05:00 +20°C° 0.6 mm 4 mps 748 mmHg 79%
    06:00 +21°C° 0.6 mm 4 mps 748 mmHg 76%
    07:00 +22°C° 0.6 mm 4 mps 748 mmHg 72%
    08:00 +25°C° 0.4 mm 4 mps 747 mmHg 67%
    09:00 +27°C° 0.4 mm 4 mps 747 mmHg 61%
    10:00 +29°C° 0.4 mm 4 mps 747 mmHg 55%
    11:00 +30°C° 0 mm 4 mps 747 mmHg 51%
    12:00 +32°C° 0 mm 4 mps 746 mmHg 46%
    13:00 +33°C° 0 mm 4 mps 746 mmHg 41%
    14:00 +33°C° 0 mm 4 mps 745 mmHg 43%
    15:00 +32°C° 0 mm 4 mps 745 mmHg 45%
    16:00 +30°C° 0 mm 4 mps 745 mmHg 47%
    17:00 +29°C° 0.7 mm 4 mps 745 mmHg 53%
    18:00 +27°C° 0.7 mm 3 mps 745 mmHg 59%
    19:00 +25°C° 0.7 mm 3 mps 745 mmHg 65%
    20:00 +24°C° 1.1 mm 3 mps 745 mmHg 71%
    21:00 +22°C° 1.1 mm 3 mps 745 mmHg 77%
    22:00 +21°C° 1.1 mm 2 mps 745 mmHg 82%
    23:00 +21°C° 0.5 mm 2 mps 745 mmHg 85%

    25 August, Saturday

    Time Temperature Precipitation Wind Pressure Humidity
    00:00 +22°C° 0.5 mm 1 mps 745 mmHg 87%
    01:00 +21°C° 0.5 mm 1 mps 745 mmHg 89%
    02:00 +21°C° 0.2 mm 1 mps 745 mmHg 89%
    03:00 +20°C° 0.2 mm 2 mps 745 mmHg 90%
    04:00 +20°C° 0.2 mm 2 mps 745 mmHg 91%
    05:00 +20°C° 0.2 mm 3 mps 745 mmHg 89%
    06:00 +21°C° 0.2 mm 3 mps 746 mmHg 86%
    07:00 +21°C° 0.2 mm 3 mps 746 mmHg 84%
    08:00 +21°C° 0.4 mm 4 mps 747 mmHg 82%
    09:00 +21°C° 0.4 mm 4 mps 747 mmHg 79%
    10:00 +21°C° 0.4 mm 5 mps 747 mmHg 77%
    11:00 +21°C° 0.2 mm 5 mps 748 mmHg 77%
    12:00 +20°C° 0.2 mm 5 mps 748 mmHg 78%
    13:00 +20°C° 0.2 mm 5 mps 748 mmHg 78%
    14:00 +19°C° 0 mm 4 mps 748 mmHg 78%
    15:00 +19°C° 0 mm 4 mps 748 mmHg 78%
    16:00 +19°C° 0 mm 4 mps 748 mmHg 78%
    17:00 +18°C° 0 mm 3 mps 748 mmHg 78%
    18:00 +18°C° 0 mm 3 mps 748 mmHg 79%
    19:00 +18°C° 0 mm 3 mps 749 mmHg 79%
    20:00 +17°C° 0 mm 3 mps 748 mmHg 80%
    21:00 +17°C° 0 mm 3 mps 748 mmHg 80%
    22:00 +17°C° 0 mm 3 mps 748 mmHg 81%
    23:00 +17°C° 0.2 mm 4 mps 748 mmHg 83%

    26 August, Sunday

    Time Temperature Precipitation Wind Pressure Humidity
    00:00 +15°C° 0.2 mm 4 mps 748 mmHg 84%
    01:00 +15°C° 0.2 mm 4 mps 748 mmHg 86%
    02:00 +15°C° 0.5 mm 5 mps 747 mmHg 88%
    03:00 +15°C° 0.5 mm 5 mps 747 mmHg 89%
    04:00 +14°C° 0.5 mm 5 mps 747 mmHg 90%
    05:00 +14°C° 1.1 mm 5 mps 747 mmHg 91%
    06:00 +14°C° 1.1 mm 5 mps 747 mmHg 91%
    07:00 +14°C° 1.1 mm 5 mps 747 mmHg 92%
    08:00 +14°C° 0.6 mm 5 mps 747 mmHg 91%
    09:00 +15°C° 0.6 mm 5 mps 747 mmHg 91%
    10:00 +15°C° 0.6 mm 5 mps 747 mmHg 90%
    11:00 +14°C° 0.6 mm 5 mps 747 mmHg 90%
    12:00 +14°C° 0.6 mm 6 mps 747 mmHg 90%
    13:00 +14°C° 0.6 mm 6 mps 747 mmHg 90%
    14:00 +13°C° 1 mm 6 mps 748 mmHg 90%
    15:00 +11°C° 1 mm 6 mps 748 mmHg 90%
    16:00 +11°C° 1 mm 7 mps 748 mmHg 90%
    17:00 +10°C° 0.1 mm 6 mps 749 mmHg 90%
    18:00 +10°C° 0.1 mm 5 mps 749 mmHg 89%
    19:00 +10°C° 0.1 mm 5 mps 750 mmHg 89%
    20:00 +11°C° 0 mm 4 mps 750 mmHg 90%
    21:00 +10°C° 0 mm 4 mps 750 mmHg 91%
    22:00 +10°C° 0 mm 3 mps 751 mmHg 92%
    23:00 +10°C° 0 mm 3 mps 751 mmHg 92%
    Show more